Regional Weather Roundup
Issued by NWS

Home | Current Version | Previous Version | Graphics & Text | Print | Product List | Glossary On
Versions: 1 2 3 4 5 6 7 8 9 10 11 12 13 14 15 16 17 18 19 20 21 22 23 24 25 26 27 28 29 30 31 32 33 34 35 36 37 38 39 40 41 42 43 44 45 46 47 48 49 50
000
ASUS43 KMPX 300901
RWRMN
WEATHER ROUNDUP FOR MINNESOTA
NATIONAL WEATHER SERVICE TWIN CITIES/CHANHASSEN MN
400 AM CDT SUN AUG 30 2015


NOTE: "FAIR" INDICATES FEW OR NO CLOUDS BELOW 12,000 FEET WITH NO
SIGNIFICANT WEATHER AND/OR OBSTRUCTIONS TO VISIBILITY. N/A MEANS
CURRENT SKY AND/OR WEATHER CONDITIONS ARE NOT AVAILABLE.

MNZ060>063-068>070-301000-
   Twin Cities Metro

CITY           SKY/WX    TMP DP  RH WIND       PRES   REMARKS
TWIN CITIES    CLOUDY    63  62  97 S6        30.00R
ST PAUL        CLOUDY    63  63 100 SE5       30.00S FOG
CRYSTAL        MOCLDY    63  61  93 S5        29.98R
BLAINE         CLEAR     63  63 100 S5        29.99S FOG
LAKEVILLE      CLOUDY    61  61 100 CALM      30.00S
EDEN PRAIRIE   CLEAR     62  60  93 S6        29.98F
SOUTH ST PAUL  CLOUDY    63  61  95 S5        30.00S FOG
LAKE ELMO      CLOUDY    63  61  94 CALM      30.01S
$$
MNZ001>005-007-008-013>017-022>024-027-028-301000-
   Northwest Minnesota

CITY           SKY/WX    TMP DP  RH WIND       PRES   REMARKS
BEMIDJI        CLEAR     62  61  97 S6        29.88S
HALLOCK        PTCLDY    66  64  94 S10       29.77S
ROSEAU         CLEAR     64  61  88 S9        29.79F
WARROAD        CLEAR     66  63  88 S8        29.80S
THIEF RVR FALL CLEAR    N/A N/A N/A S8        29.82S
CROOKSTON      PTCLDY    66  64  94 S12       29.82S
FOSSTON        CLEAR     61  61 100 S6        29.86S
DETROIT LAKES  CLEAR     64  63  94 S8        29.89S
MOORHEAD       PTCLDY    64  63  94 S10       29.85R
PARK RAPIDS    CLOUDY    65  62  90 S9        29.90F
MAHNOMEN       FAIR      65  63  93 S8        29.86S
$$
MNZ006-009>011-018-025>026-301000-
   North Central Minnesota

CITY           SKY/WX    TMP DP  RH WIND       PRES   REMARKS
BAUDETTE       CLEAR     63  61  93 S8        29.82F
FLAG ISLAND    PTCLDY    66  64  94 S3        29.79R
INTL FALLS     CLEAR     63  61  93 S5        29.85F
WASKISH        CLEAR     64  63  94 S5        29.86S
BIG FORK       CLOUDY    64  63  94 S8        29.90S
LONGVILLE      MOCLDY    63  61  94 S6        29.91S
GRAND RAPIDS     N/A     63  59  88 S7        29.92F
CRANE LAKE     CLEAR     55  55 100 SE1       29.91S
ORR            CLEAR     61  57  88 CALM      29.88S
COOK           CLEAR     61  59  94 S3        29.91S
WALKER         CLOUDY    63  61  94 S7        29.89F
$$
MNZ012-019>021-037-301000-
   Northeast Minnesota

CITY           SKY/WX    TMP DP  RH WIND       PRES   REMARKS
DULUTH         CLOUDY    63  61  93 SW10      29.95S FOG
ELY            CLEAR     61  57  88 SW7       29.92S
HIBBING        CLOUDY    60  59  96 S5        29.93S FOG
EVELETH        MOCLDY    59  59 100 CALM      29.95S FOG
DULUTH HARBOR  PTCLDY    63  61  94 SW5       29.96R
TWO HARBORS    HAZE      57  54  88 CALM      29.94S VSB 1
SILVER BAY     CLEAR     55  54  94 CALM      29.93S
GRAND MARAIS     N/A     54  53  97 CALM      29.93S
G MARAIS ARPRT CLEAR     59  55  88 S5        29.96S FOG
$$
MNZ029>031-032-039>041-046>048-054>057-064-301000-
   West Central Minnesota

CITY           SKY/WX    TMP DP  RH WIND       PRES   REMARKS
FERGUS FALLS   CLEAR     64  64 100 S9        29.88S
WHEATON        CLEAR     59  57  94 SE9       29.89S
MORRIS         CLEAR     63  61  94 SE10      29.90F FOG
ALEXANDRIA     CLEAR     63  62  97 S9        29.93F
ELBOW LAKE     FAIR      62  61  98 SE10      29.90R
WADENA         FAIR      61  61 100 S5        29.91S
GLENWOOD       CLEAR     63  61  94 S8        29.95S
APPLETON       CLEAR     63  61  94 SE6       29.92R
BENSON         CLEAR     63  59  88 S8        29.93S
ORTONVILLE     FAIR      61  59  94 SE8       29.90S
MADISON        CLEAR     61  59  94 SE6       29.91F
WILLMAR        CLOUDY    63  63 100 CALM      29.97R FOG
$$
MNZ033>034-036-042>043-049>051-058-059-301000-
   Central Minnesota

CITY           SKY/WX    TMP DP  RH WIND       PRES   REMARKS
ST CLOUD       FOG       57  57 100 SE7       29.97R VSB 3/4
SAUK CENTRE    CLOUDY    61  61  99 S5        29.95S FOG
PAYNESVILLE    CLOUDY    63  62  97 SE5       29.97R
AITKIN         CLOUDY    64  59  82 SW6       29.93S
PINE RIVER     CLOUDY    63  63 100 S6        29.95F
BRAINERD       CLOUDY    63  62  97 S10       29.94S
STAPLES        CLOUDY    63  61  94 S8        29.92F
LONG PRAIRIE   CLOUDY    61  61 100 S7        29.94F
LITTLE FALLS   CLOUDY    61  59  94 S3        29.95S FOG
LITCHFIELD     CLOUDY    63  63 100 CALM      29.98R FOG
BUFFALO        CLEAR     60  58  92 S3        29.99S
MAPLE LAKE     CLEAR     60  60  98 S3        29.99S
$$
MNZ037-044-045-052-053-301000-
   East Central Minnesota

CITY           SKY/WX    TMP DP  RH WIND       PRES   REMARKS
PRINCETON      CLEAR     63  61  94 S6        29.98S
MORA           CLOUDY    59  57  94 S6        29.99S FOG
CAMBRIDGE      PTCLDY    63  55  77 S5        29.97R HAZE
RUSH CITY      CLOUDY    62  61  96 S6        29.98S FOG
MOOSE LAKE     CLOUDY    61  59  94 S5        29.95R FOG
HINCKLEY       CLOUDY    61  61 100 S5        29.97F FOG
CLOQUET        CLOUDY    63  61  94 SW9       29.96R FOG
MCGREGOR       CLOUDY    61  61 100 S6        29.95S
$$
MNZ071>073-080-081-089-090-097-098-301000-
   Southwest Minnesota

CITY           SKY/WX    TMP DP  RH WIND       PRES   REMARKS
MONTEVIDEO     CLEAR     61  61 100 S7        29.95S
GRANITE FALLS  PTCLDY    60  60  99 SE8       29.97R
CANBY          CLEAR     65  61  86 S6        29.93S
MARSHALL       PTCLDY    63  57  82 S7G16     29.97R
REDWOOD FALLS  CLOUDY    63  61  93 S9        29.97S
OLIVIA         CLOUDY    59  57  94 S9        29.97R
PIPESTONE      CLOUDY    63  61  94 SW10G16   30.00R FOG
WINDOM         CLOUDY    61  61 100 S14       30.00S
WORTHINGTON    CLOUDY    61  57  88 SW14      30.01S
JACKSON        CLOUDY    61  61 100 S9        30.02S FOG
TRACY          PTCLDY    63  61  94 S15G24    29.97R
SLAYTON        CLOUDY    61  61 100 S8        30.00S
$$
MNZ065>067-074>077-082>085-091>093-301000-
   South Central Minnesota

CITY           SKY/WX    TMP DP  RH WIND       PRES   REMARKS
MANKATO        CLEAR     57  55  94 S7        30.00S
NEW ULM        CLOUDY    61  61 100 SW10      29.99S
ST JAMES       CLOUDY    63  61  94 S8        30.01S
FAIRMONT       CLOUDY    63  55  77 S9        30.01S
GLENCOE        CLOUDY    62  62  99 S7        29.98S FOG
FARIBAULT      CLOUDY    61  61 100 S5        30.02R FOG
OWATONNA       FOG       61  59  94 S5        30.02S VSB 1/2
WASECA         PTCLDY    55  55 100 CALM      30.03S FOG
ALBERT LEA     FOG       61  61 100 S5        30.03S VSB 1/2
$$
MNZ078>079-086>088-094>096-301000-
   Southeast Minnesota

CITY           SKY/WX    TMP DP  RH WIND       PRES   REMARKS
ROCHESTER      CLEAR     57  57 100 S8        30.03F FOG
RED WING       CLEAR     63  61  94 SE3       30.00S
STANTON        MOCLDY    60  58  93 CALM      30.00R
DODGE CENTER   CLEAR     59  57  94 S7        30.03R
WINONA         FOG       59  59 100 CALM      30.03R VSB 1/4
AUSTIN         CLEAR     61  57  88 S5        30.03S
PRESTON        FOG       58  57  97 CALM      30.05R VSB 1/4
$$
ABBREVIATIONS USED IN REMARKS
   TC - TEMPERATURES IN CELSIUS
  WCI - WIND CHILL INDEX
   HX - HEAT INDEX
  VSB - VISIBILITY
$$



USA.gov is the U.S. government's official web portal to all federal, state and local government web resources and services.